Home   Weather   Stockholm   Past weeks
Flag for Sweden

Past Weather in Stockholm, Sweden — Yesterday and Last 2 Weeks

Now
43 °F

Overcast.


Feels Like: 43 °F
Forecast: 50 / 46 °F
Wind: No wind

Location: Stockholm Bromma Airport

Current Time: Oct 15, 2019 at 3:23:53 am

Latest Report: Oct 15, 2019 at 2:50 am


Visibility: N/A

Pressure: 30.09 "Hg

Humidity: 100%

Dew Point: 43 °F

Location of StockholmLocation

Past Weather in Stockholm — Graph

°F

Stockholm Temperature Yesterday

Maximum temperature yesterday: 50 °F (at 2:50 pm)
Minimum temperature yesterday: 39 °F (at 9:50 pm)
Average temperature yesterday: 46 °F

High & Low Weather Summary for the Past Weeks

 TemperatureHumidityPressure
High57 °F (Sep 30, 2:20 pm)100% (Sep 30, 1:20 am)30.27 "Hg (Sep 30, 1:20 am)
Low30 °F (Oct 7, 6:50 am)46% (Oct 5, 1:50 pm)29.09 "Hg (Sep 30, 5:20 pm)
Average44 °F86%29.66 "Hg
* Reported Sep 30 1:20 am — Oct 15 1:50 am, Stockholm. Weather by CustomWeather, © 2019

Note: Actual official high and low records may vary slightly from our data, if they occured in-between our weather recording intervals... More about our weather records

Advertising

Stockholm Weather History for the Previous 24 Hours

Scroll right to see more
 ConditionsComfort  
Time TempWeatherWind HumidityBarometerVisibility
1:50 am
Tue, Oct 15
45 °FOvercast.2 mph93%30.07 "HgN/A
1:20 am43 °FOvercast.1 mph100%30.09 "HgN/A
12:50 am43 °FOvercast.No wind100%30.07 "HgN/A
12:20 am41 °FOvercast.No wind100%30.07 "HgN/A
11:50 pm
Mon, Oct 14
41 °FOvercast.No wind100%30.07 "HgN/A
11:20 pm39 °FOvercast.No wind100%30.07 "HgN/A
10:50 pm39 °FOvercast.2 mph100%30.07 "Hg1 mi
10:20 pm39 °FPassing clouds.No wind100%30.04 "Hg1 mi
9:50 pm39 °FPassing clouds.2 mph100%30.04 "Hg4 mi
9:20 pm41 °FPassing clouds.3 mph93%30.01 "Hg5 mi
8:50 pm43 °FPassing clouds.2 mph93%30.01 "HgN/A
8:20 pm43 °FPassing clouds.5 mph93%29.98 "HgN/A
7:50 pm45 °FPassing clouds.6 mph93%29.98 "HgN/A
7:20 pm46 °FPassing clouds.6 mph93%29.95 "HgN/A
6:50 pm46 °FPassing clouds.5 mph93%29.95 "HgN/A
6:20 pm48 °FPassing clouds.5 mph87%29.92 "HgN/A
5:50 pm48 °FPartly cloudy.6 mph87%29.92 "HgN/A
5:20 pm48 °FBroken clouds.7 mph87%29.89 "HgN/A
4:50 pm48 °FPartly sunny.9 mph87%29.86 "HgN/A
4:20 pm50 °FBroken clouds.9 mph82%29.83 "HgN/A
3:50 pm50 °FBroken clouds.7 mph88%29.83 "HgN/A
3:20 pm50 °FBroken clouds.6 mph82%29.77 "HgN/A
2:50 pm50 °FBroken clouds.8 mph88%29.77 "HgN/A
2:20 pm48 °FBroken clouds.8 mph94%29.74 "HgN/A
1:50 pm48 °FBroken clouds.8 mph94%29.71 "HgN/A
1:20 pm48 °FDrizzle. Mostly cloudy.9 mph94%29.68 "HgN/A
12:50 pm48 °FDrizzle. Partly sunny.8 mph94%29.65 "HgN/A
12:20 pm48 °FLight rain. Partly sunny.12 mph94%29.62 "HgN/A
11:50 am46 °FLight rain. Broken clouds.10 mph100%29.62 "Hg4 mi
11:20 am46 °FLight rain. Partly sunny.10 mph100%29.59 "Hg4 mi
10:50 am46 °FLight rain. Partly sunny.10 mph100%29.59 "Hg3 mi
9:50 am46 °FRain. Low clouds.9 mph100%29.56 "Hg3 mi
9:20 am46 °FRain. Partly sunny.10 mph100%29.53 "Hg2 mi
8:50 am46 °FLight rain. Partly sunny.12 mph93%29.53 "Hg3 mi
8:20 am46 °FLight rain. Cloudy.13 mph93%29.53 "Hg3 mi
7:50 am46 °FLight rain. Broken clouds.12 mph93%29.56 "Hg3 mi
7:20 am46 °FLight rain. Passing clouds.9 mph93%29.56 "Hg4 mi
6:50 am46 °FLight rain. Partly cloudy.9 mph93%29.59 "Hg4 mi
6:20 am46 °FLight rain. Partly cloudy.8 mph93%29.59 "Hg4 mi
5:50 am46 °FLight rain. Mostly cloudy.13 mph93%29.59 "HgN/A
5:20 am48 °FLight rain. Low clouds.12 mph94%29.59 "HgN/A
4:50 am48 °FLight rain. Overcast.12 mph94%29.62 "HgN/A
4:20 am48 °FRain. Low clouds.3 mph100%29.65 "HgN/A
3:50 am48 °FDrizzle. Mostly cloudy.5 mph100%29.65 "HgN/A
3:20 am48 °FRain. Mostly cloudy.5 mph100%29.68 "HgN/A
Weather by CustomWeather, © 2019

See weather overview